Location: Boiro
(42.6475°N, 8.8834°W)
Time: 23:41:07
(UTC+01:00)

A-11 Canister half - Pass Details

Date: 09 December 2021
Orbit: 1516 x 1684 km, 47.2° (Epoch: 18 January)

Event Time Altitude Azimuth Distance (km) Brightness Sun altitude
Rises 08:19:17 0° 251° (WSW) 4,735 11.1 -6.4°
Reaches altitude 10° 08:22:19 10° 253° (WSW) 3,773 10.6 -5.9°
Maximum altitude 08:31:58 81° 341° (NNW) 1,640 9.2 -4.4°
Drops below altitude 10° 08:42:02 10° 69° (ENE) 3,911 11.8 -2.7°
Sets 08:45:14 0° 71° (ENE) 4,915 12.3 -2.2°
